OBJECT M, 44890

Orbit data source: Space-Track

You're viewing an Uncataloged Satellite

Recently launched and/or uncataloged satellites may have evolving metadata. Metadata may include but not limited to: Owner, Maufacturer, Bus, Motor, and Mission.

OBJECT M, 44890 is a satellite in SSO that was launched on Fri, 20 Dec 2019 UTC launched from the Taiyaun Space Center, China (TSC). Unknown objects in Earth's orbit typically refer to objects detected orbiting the Earth but have not yet been identified or cataloged. These objects could be anything from previously untracked satellites, spent rocket stages, debris from satellite collisions, or even natural meteoroids temporarily captured by Earth's gravity.

Loading next visibility...
Identifier
44890, 2019-093M
Orbit
SSO
Country
Flag of TBDTBD
Related business
Manufacturer
SAST
Mission
Spacecraft
Bus & Motor
Unknown
Mass
Unknown
Launch date (UTC)
2019-12-20 (7 years ago)
Launch vehicle
Unknown
Launch site
Taiyaun Space Center, China (TSC)
Object type
Unknown
Shape & HBR
Unknown shape, 0.1 m
Radar Cross Section
Medium (>0.1 m² and <1 m²)

Expand to show TLE details & history
Last TLE update: 8 hours ago

TLE from 8 hours ago
0 OBJECT M
1 44890U 19093M   26208.54520566  .00021153  00000-0  80133-3 0  9998
2 44890  97.7696 316.8475 0020640 169.3641 190.8038 15.26732548360446
Epoch: 2026-07-27T13:05Z
TLE epoch observation values (Epoch: 2026-07-27T13:05:05.769Z)
Latitude
0.00005°
Longitude
175.34621°
Altitude
502.596 km
Speed
7.605 km/s
True Right ascension
21h 07m 23s
True Declination
0° 00' 00"
Sunlit
Object was in full shadow at epoch
Visualization orbit readout
Latitude
Unknown
Longitude
Unknown
Altitude
Unknown
Speed
Unknown
Apparent Right ascension
Unknown
Apparent Declination
Unknown
Sunlit
N/A
Visualization observer readout
Local Sidereal Time
10:31:32
Azimuth
Unknown
Elevation
Unknown
Doppler factor
Unknown
Orbital elements
Apogee altitude
496.721 km
Perigee altitude
468.4 km
Semi-major axis
6,860.698 km
Eccentricity
0.00206
Inclination
97.7696°
RAAN
316.8475°
Arg. of periapsis
169.3641°
True anomaly
190.75958°
Mean anomaly
190.8038°
Eccentric anomaly
190.78168°
Mean motion
3.81936 °/min
Orbital period
94.26 mins
BSTAR
0.00080133
Loading maneuver chart data...
Computing Atmospheric mass density...
Loading historical data...
Loading historical data...
Loading historical data...
Loading historical data...
Loading historical data...
Loading historical data...
Loading historical data...

Documentation

Showing up to 5 results
|